星链-30941 (STARLINK-30941 )

导读

STARLINK-30941是美国SpaceX公司星链星座中的一颗互联网卫星,于北京时间2023年12月3日发射入轨。 星链星座是全球规模最大的低地球轨道卫星星座,截至2026年初已有超6800颗星链卫星在轨运行,持续为全球提供高速卫星互联网接入服务。STARLINK-30941的入轨进一步扩充了星链星座的服务覆盖容量与网络冗余能力。

Basic Information
目录编号:
58475
目录名称:
STARLINK-30941
国际标识:
2023-186C
轨道中心:
EARTH
卫星名称:
星链-30941
卫星全名:
星链-30941 (STARLINK-30941 )
卫星状态:
在轨 (已飞行928 天)
发射日期:
2023-12-03 UTC
国别 :
美国 (US)
星等 :
--
Orbit Information
数据来源 国际轨道数据
星历时间: 2026-06-17T05:03:02+0800
1天前
查看轨道信息
半长轴: 6861.204km
偏心率: 0.0001083
轨道倾角: 43.002°
近地点辐角 270.927°
升交点赤经 227.074°
平近点角 89.146°
近地点: 482.323km
远地点: 483.811km
周期: 94.267分钟
每日圈数: 15.275742
Detailed Information
固有亮度:
5
最大亮度:
0.3
卫星平台:
Starlink v2.0 mini
覆盖范围:
全球
运营商:
太空探索技术公司
运营商所在国:
美国
制造商(研发单位):
太空探索技术公司
制造商所在国:
美国
使用方式:
暂无
Satellite Introduction
星链(Starlink)计划是由太空探索技术公司(SpaceX)提出的一个巨型低轨卫星互联网星座项目,计划在2019年至2024年间在太空搭建由约1.2万颗卫星组成的“星链”网络,其中1584颗将部署在地球上空550千米处的近地轨道,并从2020年开始工作。该卫星仍在工作。
2D Orbit Map
3D Orbit Map
Orbit Altitude Analysis Chart
Orbit Inclination Analysis Chart
Orbit Comprehensive Analysis Chart
View Comprehensive Chart